Weather History for KSTP - November, 2011

Change the Weather History Date:

Wednesday, November 9, 2011

  Actual Average Record
Temperature  
Mean Temperature 40 °F -  
Max Temperature 48 °F 43 °F 71 °F (1999)
Min Temperature 33 °F 28 °F 16 °F (2003)
Degree Days  
Heating Degree Days 24    
Moisture  
Dew Point 24 °F    
Average Humidity 55    
Maximum Humidity 82    
Minimum Humidity 35    
Precipitation  
Precipitation 0.00 in - - ()
Sea Level Pressure  
Sea Level Pressure 30.03 in    
Wind  
Wind Speed 10 mph (NW)    
Max Wind Speed 25 mph    
Max Gust Speed 33 mph    
Visibility 9 miles    
Events Snow    
Averages and records for this station are not official NWS values.
T = Trace of Precipitation, MM = Missing Value Source: NWS Daily Summary

Daily Weather History Graph

Daily Weather History Graph

Search for Another Location

Airport or City:

Trip Planner

Search our weather history database for the weather conditions in past years. The results will help you decide how hot, cold, wet, or windy it might be!

Date:

Astronomy

Nov. 09, 2011 Rise Set
Actual Time 7:01 AM CST 4:50 PM CST
Civil Twilight 6:29 AM CST 5:21 PM CST
Nautical Twilight 5:54 AM CST 5:56 PM CST
Astronomical Twilight 5:20 AM CST 6:30 PM CST
Moon 4:01 PM CST (11/9) 5:57 AM CST (11/9)
Length of Visible Light 10h 51m
Length of Day
9h 49m
Waxing Gibbous, 99% of the Moon is Illuminated
Nov 9
Waxing Gibbous
Nov 10
Full
Nov 18
Last Quarter
Nov 25
New
Dec 2
First Quarter

Hourly Weather History & Observations

Time (CST) Temp. Windchill Dew Point Humidity Pressure Visibility Wind Dir Wind Speed Gust Speed Precip Events Conditions
12:53 AM 39.9 °F 35.1 °F 25.0 °F 55% 30.14 in 10.0 mi North 6.9 mph - N/A   Clear
1:53 AM 39.9 °F 33.9 °F 25.0 °F 55% 30.13 in 10.0 mi North 9.2 mph - N/A   Clear
2:53 AM 39.0 °F 34.0 °F 24.1 °F 55% 30.12 in 10.0 mi North 6.9 mph - N/A   Clear
3:53 AM 37.9 °F 32.7 °F 23.0 °F 55% 30.11 in 10.0 mi NNW 6.9 mph - N/A   Clear
4:53 AM 37.9 °F 31.5 °F 24.1 °F 57% 30.09 in 10.0 mi North 9.2 mph - N/A   Clear
5:53 AM 37.9 °F 33.5 °F 23.0 °F 55% 30.11 in 10.0 mi NNW 5.8 mph - N/A   Clear
6:53 AM 37.0 °F 33.3 °F 24.1 °F 59% 30.10 in 10.0 mi NNW 4.6 mph - N/A   Clear
7:53 AM 37.4 °F 32.1 °F 24.8 °F 60% 30.05 in 10.0 mi NNW 6.9 mph - N/A   Clear
8:53 AM 37.9 °F 33.5 °F 25.0 °F 60% 30.07 in 10.0 mi NW 5.8 mph - N/A   Clear
9:53 AM 39.9 °F 37.8 °F 26.1 °F 58% 30.07 in 10.0 mi NNW 3.5 mph - N/A   Clear
10:53 AM 42.8 °F 38.6 °F 24.8 °F 49% 30.03 in 10.0 mi NNW 6.9 mph - N/A   Clear
11:53 AM 45.0 °F 38.9 °F 23.0 °F 42% 30.01 in 10.0 mi NW 12.7 mph - N/A   Clear
12:53 PM 46.4 °F 39.5 °F 23.0 °F 40% 29.98 in 10.0 mi NW 17.3 mph 23.0 mph N/A   Clear
1:53 PM 48.9 °F - 21.9 °F 35% 29.98 in 10.0 mi NW 21.9 mph 27.6 mph N/A   Clear
2:53 PM 48.9 °F - 21.9 °F 35% 29.97 in 10.0 mi WNW 17.3 mph 27.6 mph N/A   Clear
3:53 PM 46.9 °F - 21.9 °F 37% 29.97 in 10.0 mi WNW 16.1 mph 28.8 mph N/A   Clear
4:53 PM 44.1 °F 34.8 °F 24.1 °F 45% 29.99 in 10.0 mi West 25.3 mph 31.1 mph N/A   Clear
5:53 PM 41.0 °F 32.8 °F 21.9 °F 47% 30.01 in 10.0 mi WNW 16.1 mph 29.9 mph N/A   Partly Cloudy
6:53 PM 39.0 °F 29.9 °F 23.0 °F 53% 30.01 in 10.0 mi WNW 17.3 mph 28.8 mph N/A   Clear
7:53 PM 37.9 °F 30.9 °F 21.9 °F 53% 30.00 in 10.0 mi WNW 10.4 mph - N/A   Clear
8:53 PM 39.9 °F 29.7 °F 23.0 °F 51% 29.99 in 10.0 mi NW 23.0 mph 33.4 mph N/A   Overcast
9:53 PM 37.9 °F 28.2 °F 26.1 °F 62% 29.99 in 10.0 mi WNW 18.4 mph 28.8 mph N/A   Overcast
10:53 PM 35.1 °F 25.5 °F 28.0 °F 76% 30.00 in 3.0 mi NW 15.0 mph 25.3 mph 0.00 in Snow Light Snow
11:35 PM 33.8 °F 23.9 °F 28.4 °F 81% 29.99 in 2.5 mi WNW 15.0 mph 23.0 mph 0.00 in Snow Light Snow
11:39 PM 33.8 °F 24.8 °F 28.4 °F 81% 29.99 in 3.0 mi WNW 12.7 mph 23.0 mph 0.00 in Snow Light Snow
11:53 PM 34.0 °F 25.0 °F 28.9 °F 82% 29.99 in 6.0 mi WNW 12.7 mph 21.9 mph 0.00 in Snow Light Snow